Location: Proctor
(47.8934°N, 114.3048°W)
Time: 17:04:12
(UTC+00:00)

Courier 1B Rocket - Pass Details

Date: 15 June 2024
Orbit: 920 x 1201 km, 28.2° (Epoch: 16 July)

Event Time Altitude Azimuth Distance (km) Brightness Sun altitude
Rises 14:19:51 0° 231° (SW) 3,976 7.7 24.0°
Reaches altitude 10° 14:23:48 10° 212° (SSW) 3,061 7.3 24.6°
Maximum altitude 14:28:12 16° 176° (S) 2,640 7.4 25.3°
Drops below altitude 10° 14:32:40 10° 141° (SE) 3,121 8.2 26.1°
Sets 14:36:46 0° 122° (ESE) 4,093 9.0 26.8°
